This is the latest recevied weather packets stored in our database for station/object KB1ZFK. If no packets are shown the sender has not sent any weather packets the latest 1 day(s).
| Time | Temp. | Humidity | Pressure | Rain* | Wind** | Luminosity | Snow |
|---|---|---|---|---|---|---|---|
| 1778010392 | 26.67° C | 35% | 1004.4 hPa | 0 mm | 1.79 m/s, 333° | 239 W/m² | - |
| 1778010088 | 26.67° C | 36% | 1004.3 hPa | 0 mm | 0.89 m/s, 279° | 272 W/m² | - |
| 1778009785 | 27.22° C | 35% | 1004.4 hPa | 0 mm | 0.89 m/s, 284° | 113 W/m² | - |
| 1778009482 | 27.78° C | 35% | 1004.5 hPa | 0 mm | 1.79 m/s, 349° | 123 W/m² | - |
| 1778009180 | 27.22° C | 34% | 1004.6 hPa | 0 mm | 2.24 m/s, 78° | 293 W/m² | - |
| 1778008877 | 27.22° C | 35% | 1004.8 hPa | 0 mm | 1.34 m/s, 315° | 675 W/m² | - |
| 1778008576 | 27.22° C | 34% | 1004.6 hPa | 0 mm | 1.34 m/s, 36° | 706 W/m² | - |
| 1778008273 | 27.78° C | 33% | 1004.6 hPa | 0 mm | 2.24 m/s, 72° | 606 W/m² | - |
| 1778007969 | 28.33° C | 33% | 1004.6 hPa | 0 mm | 1.34 m/s, 291° | 186 W/m² | - |
| 1778007664 | 27.78° C | 33% | 1004.8 hPa | 0 mm | 0.89 m/s, 6° | 689 W/m² | - |
| 1778007361 | 27.78° C | 34% | 1004.9 hPa | 0 mm | 1.34 m/s, 38° | 689 W/m² | - |
| 1778007057 | 27.22° C | 35% | 1005.2 hPa | 0 mm | 1.34 m/s, 289° | 781 W/m² | - |
| 1778006754 | 27.78° C | 34% | 1005.2 hPa | 0 mm | 1.34 m/s, 309° | 157 W/m² | - |
| 1778006451 | 27.22° C | 34% | 1005.1 hPa | 0 mm | 2.24 m/s, 246° | 435 W/m² | - |
| 1778006148 | 27.22° C | 34% | 1005.5 hPa | 0 mm | 1.79 m/s, 349° | 803 W/m² | - |
| 1778005845 | 27.78° C | 34% | 1005.3 hPa | 0 mm | 1.79 m/s, 171° | 847 W/m² | - |
| 1778005541 | 28.33° C | 34% | 1005.5 hPa | 0 mm | 1.34 m/s, 316° | 195 W/m² | - |
| 1778005238 | 27.78° C | 33% | 1005.5 hPa | 0 mm | 1.34 m/s, 162° | 856 W/m² | - |
| 1778004935 | 27.22° C | 35% | 1005.7 hPa | 0 mm | 1.79 m/s, 176° | 872 W/m² | - |
| 1778004632 | 27.22° C | 35% | 1005.7 hPa | 0 mm | 1.34 m/s, 263° | 226 W/m² | - |
| 1778004328 | 26.67° C | 36% | 1005.7 hPa | 0 mm | 2.24 m/s, 139° | 792 W/m² | - |
| 1778004027 | 26.67° C | 35% | 1005.6 hPa | 0 mm | 1.34 m/s, 271° | 371 W/m² | - |
| 1778003726 | 27.22° C | 35% | 1005.9 hPa | 0 mm | 3.13 m/s, 241° | 854 W/m² | - |
| 1778003423 | 27.78° C | 34% | 1005.9 hPa | 0 mm | 2.68 m/s, 146° | 221 W/m² | - |
| 1778003120 | 27.22° C | 35% | 1005.7 hPa | 0 mm | 1.34 m/s, 284° | 874 W/m² | - |
* Rain latest hour (hover to see other rain measurements)
** Current wind speed in m/s (hover to see current wind gust speed)